Regional Weather Roundup
Issued by NWS Charleston, SC

Home | Current Version | Previous Version | Text Only | Print | Product List | Glossary On
Versions: 1 2 3 4 5 6 7 8 9 10 11 12 13 14 15 16 17 18 19 20 21 22 23 24 25 26 27 28 29 30 31 32 33 34 35 36 37 38 39 40 41 42 43 44 45 46 47 48 49 50
000
ASUS42 KCHS 250526
RWRCHS

REGIONAL WEATHER ROUNDUP
NATIONAL WEATHER SERVICE CHARLESTON SC
1200 AM EST SAT FEB 25 2017

NOTE: "FAIR" INDICATES FEW OR NO CLOUDS BELOW 12,000 FEET WITH NO
SIGNIFICANT WEATHER AND/OR OBSTRUCTIONS TO VISIBILITY.

NOT ALL STATIONS ARE QUALITY CONTROLLED. USE DATA WITH CAUTION...
ESPECIALLY DEWPOINT OBSERVATIONS.

SCZ027-030-031-034>040-042>050-250600-
...SOUTHEAST SOUTH CAROLINA...

CITY           SKY/WX    TMP DP  RH WIND       PRES   REMARKS
N CHARLESTON   CLEAR     59  57  93 CALM      29.85S
WATERFRONT PRK   N/A     63  63 100 CALM      29.85S
MOUNT PLEASANT FAIR      55  55 100 CALM      29.85S
JOHNS ISLAND   FAIR      57  57 100 CALM      29.86S FOG
PINOPOLIS        N/A    N/A N/A N/A CALM      29.77R
MONCKS CORNER  FOG       55  54  94 CALM      29.85F VSB 1
SUMMERVILLE    FAIR      57  55  94 CALM      29.86F
BEAUFORT MCAS  CLEAR     57  57 100 SW3       29.86S
BEAUFORT ARPT  FAIR      59  59 100 CALM      29.85F
HILTON HEAD IS CLEAR     61  61 100 S3        29.86F
WALTERBORO     CLEAR     55  55 100 CALM      29.86S
ALLENDALE      FAIR      61  61 100 CALM      29.83F

...SOUTHERN MIDLANDS AND PEE DEE...

CITY           SKY/WX    TMP DP  RH WIND       PRES   REMARKS
GEORGETOWN     FAIR      54  52  94 CALM      29.86S
KINGSTREE      FAIR      55  54  94 CALM      29.85F
ORANGEBURG     CLEAR     61  58  90 S6        29.85F
BARNWELL       FAIR      64  63  94 SE5       29.84F
AIKEN          FAIR      59  55  88 SE8       29.85F
MANNING        FAIR      59  55  88 MISG      29.85F
COLUMBIA       CLEAR     65  57  75 S7        29.82F
SUMTER         CLEAR     59  56  89 CALM      29.82F
FLORENCE       CLEAR     60  59  96 S5        29.84F
MYRTLE BEACH   CLEAR     58  57  97 CALM      29.85S
N MYRTLE BEACH CLEAR     55  55 100 CALM      29.84S

$$

GAZ063-065-086>088-099>101-113>116-118-119-134>141-150-250600-
...SOUTHEAST GEORGIA...

CITY           SKY/WX    TMP DP  RH WIND       PRES   REMARKS
SAVANNAH ARPT  CLEAR     61  58  90 SE6       29.86F
HUNTER AAF     CLEAR     59  59 100 CALM      29.83F FOG
FORT STEWART   PTCLDY    59  57  94 CALM      29.83F FOG
STATESBORO     CLEAR     62  62 100 S3        29.84F
SYLVANIA       CLEAR    N/A N/A N/A CALM      29.85F
CLAXTON        FAIR     N/A N/A N/A CALM      29.85S

...CSRA...CENTRAL AND FAR SOUTHEAST GEORGIA...

CITY           SKY/WX    TMP DP  RH WIND       PRES   REMARKS
THOMSON        CLEAR     66  61  82 S3        29.85F
AUGUSTA-BUSH   CLEAR     64  58  80 S8        29.82F
AUGUSTA-DANIEL CLEAR     65  56  72 SE6       29.83F
SWAINSBORO     FAIR      63  61  94 SE7       29.84F
VIDALIA        CLEAR     64  63  94 S5        29.84S
EASTMAN        FAIR      66  55  67 S5        29.84F
HAZLEHURST     FAIR      66  65  97 S6        29.83S
ALMA           PTCLDY    64  62  93 S6        29.85S
WAYCROSS       CLEAR     66  66 100 S5        29.85F
JESUP          FAIR      61  59  94 CALM      29.85F FOG
BAXLEY         FAIR      64  64 100 S6        29.84F
BRUNSWICK      FOG       61  61 100 CALM      29.86F VSB 1/4
SAINT SIMONS   CLEAR     65  64  97 S3        29.85F

$$

SCZ027-028-034-036>038-045-046-048>050-GAZ119-141-250600-
...LAKE AND SUPPLEMENTAL COASTAL OBSERVATIONS...

STATION/POSITION TIME  TEMP    WIND        PRES    WAVE   SWELL
                       AIR SEA DIR/SP/G            HT/PER HT/PER/DIR
                 (UTC) (F)     (DEG/KT/KT) (MB)    (FT/S) (FT/S/D)
WINYAH BAY       0430   59     310/  2     1010.0S
LAKE MURRAY      0450   64     170/ 10/ 12 1009.1F
ACE BASIN NERRS  0430   58        CALM     1011.0S
FORT PULASKI     0500   63 63  160/  4/  5 1011.3
SAPELO ISLAND    0500   64     160/  2     1011.0

$$

ANZ835-935-AMZ111-154-330-350-352-354-370-450-454-472-250600-
...C-MAN AND BUOY OBSERVATIONS...

STATION/POSITION TIME  TEMP    WIND        PRES    WAVE   SWELL
                       AIR SEA DIR/SP/G            HT/PER HT/PER/DIR
                 (UTC) (F)     (DEG/KT/KT) (MB)    (FT/S) (FT/S/D)
BUOY 41004       0450   69 71   CALM  /  2 1010.2S   8/10   8/120/10
BUOY 41008       0450   63 62  160/  4/  4 1010.8F   4/11   5/ 70/11
FOLLY BEACH CMAN 0500   63     250/  3/  4 1011.4S
CAPERS NEARSHORE NOT AVBL
FRIPP NEARSHORE  0508   62 62  190/  4/  4 1010.8F


STATION/POSITION TIME  TEMP    WIND        PRES    WAVE   SWELL
                       AIR SEA DIR/SP/G            HT/PER HT/PER/DIR
                 (UTC) (F)     (DEG/KT/KT) (MB)    (FT/S) (FT/S/D)
5E ST. MARYS GA  0430      64                N/A     4/11   2/ 90/11
FRYING PAN BUOY  0510   71 72   50/  8/ 10 1009.6
BUOY 41025       0450   71 76  100/ 16/ 19 1009.5F   8/10   7/140/10
CAPE LOOKOUT NC  0500   67     100/  7/  7 1009.3F
BUOY 41002       0450   69 70  200/  6/  6 1007.7F  10/11  10/ 80/11
BUOY 41010       NOT AVBL
ST AUGUSTINE FL  0500   66 67  190/  2/  2 1011.9S


$$



USA.gov is the U.S. government's official web portal to all federal, state and local government web resources and services.